FOSSASAT-1 (44829 NORAD) Tracking and Keplerian Element Data

This shows tracking and keplerian element data for the satellite.

Feedback or suggestion? Click here.




ElementValue
Catalog44829
NameFOSSASAT-1
Epoch Orbit1835
Epoch Day92.59520408
Epoch Year2020
RAAN321.3159
Inclination96.9882
Eccentricity0.0034253
Argument of Perigee168.6949
Mean Anonmoly191.5092
Mean Motion15.70745099
Decay Rate0.0004622
L11 44829U 19084F 20092.59520408 .00046220 00000-0 36054-3 0 9990
L22 44829 96.9882 321.3159 0034253 168.6949 191.5092 15.70745099 18356

Live tracking and technical data element details for FOSSASAT-1 (NORAD 44829). FOSSASAT-1 can be tracked NOW for your location showing map with azimuth and elevation plus other details from your city location.

Track the satellite on the map from your city or location and see movement details for azimuth, elevation, latitude, longitude, range, height, and movement on the map or in text.







IsCatalogInMostPopularTable: catalog: 44829, numindb: 52
Update: records affected: 1



GetName: 44829 FOSSASAT-1

Hit Count: updated at: Sat, 04 Apr 2020 00:03:35 GMT